Terug naar catalogus

STARLINK-5578

ActiefCommunicatieVLEO
NORAD 55374·PAYLOAD·🇺🇸 United States

Gelanceerd Jan 26, 2023 vanaf Cape Canaveral Space Force Station

Loading…

Volgende Passages (komende 24 uur)

TLE

VersSource: CelesTrak SupGP

Epoch: Sep 15, 2026, 01:31 UTC

1 55374C 23013AV  26258.06368056  .00021356  00000+0  77353-3 0  2582
2 55374  43.0042 332.3511 0002170 278.3082  20.3710 15.27565240    18

Volg STARLINK-5578 in realtime met AllMySat

Download on the App Store